Regional Weather Roundup
Issued by NWS

Home | Current Version | Previous Version | Graphics & Text | Print | Product List | Glossary On
Versions: 1 2 3 4 5 6 7 8 9 10 11 12 13 14 15 16 17 18 19 20 21 22 23 24 25 26 27 28 29 30 31 32 33 34 35 36 37 38 39 40 41 42 43 44 45 46 47 48 49 50
140
ASUS43 KMKX 310621
RWRWI

WISCONSIN REGIONAL WEATHER ROUNDUP
NATIONAL WEATHER SERVICE MILWAUKEE/SULLIVAN WI
100 AM CDT SUN JUL 31 2016

NOTE: "FAIR" INDICATES FEW OR NO CLOUDS BELOW 12,000 FEET WITH NO
SIGNIFICANT WEATHER AND/OR OBSTRUCTIONS TO VISIBILITY.

WIZ001-002-006>008-014>016-023>028-310700-
NORTHWEST WISCONSIN

CITY           SKY/WX    TMP DP  RH WIND       PRES   REMARKS
SUPERIOR ARPT  MOCLDY    62  62  98 E3        30.03R
6HR MIN TEMP:  62; 6HR MAX TEMP:  66;

ASHLAND        PTCLDY    56  56 100 S3        30.04S
6HR MIN TEMP:  55; 6HR MAX TEMP:  73;

HAYWARD        MOCLDY    62  59  90 CALM      30.05R
6HR MIN TEMP:  60; 6HR MAX TEMP:  77;

SIREN          CLEAR     63  61  94 CALM      30.03R
CUMBERLAND     CLEAR     63  59  88 SE5       30.05R
RICE LAKE      CLEAR     65  61  86 SE7       30.06R
6HR MIN TEMP:  63; 6HR MAX TEMP:  77;

CHETEK         CLEAR     65  62  91 MISG      30.05R
6HR MIN TEMP:  65; 6HR MAX TEMP:  77;

LADYSMITH      CLOUDY    64  60  85 CALM      30.08S
6HR MIN TEMP:  64; 6HR MAX TEMP:  78;

EAU CLAIRE     PTCLDY    67  62  84 SE9       30.03R
6HR MIN TEMP:  67; 6HR MAX TEMP:  78;

MENOMONIE      CLEAR     65  60  86 E3        30.03S
6HR MIN TEMP:  65; 6HR MAX TEMP:  80;

NEW RICHMOND   CLEAR     65  63  94 SE3       30.02F
6HR MIN TEMP:  65; 6HR MAX TEMP:  77;

OSCEOLA        CLEAR     65  65 100 SE3       30.04S
6HR MIN TEMP:  64; 6HR MAX TEMP:  79;

$$

WIZ003>005-009-010-017-018-310700-
NORTH CENTRAL WISCONSIN

CITY           SKY/WX    TMP DP  RH WIND       PRES   REMARKS
MANITOWISH WTR CLEAR     55  55 100 S3        30.09S
6HR MIN TEMP:  55; 6HR MAX TEMP:  74;

ARBOR VITAE    CLEAR     59  56  88 CALM      30.10S
6HR MIN TEMP:  58; 6HR MAX TEMP:  77;

WOODRUFF       CLEAR     59  56  88 CALM      30.10S
6HR MIN TEMP:  58; 6HR MAX TEMP:  77;

RHINELANDER    CLEAR     56  52  86 CALM      30.10S
6HR MIN TEMP:  53; 6HR MAX TEMP:  74;

EAGLE RIVER    CLEAR     55  55  97 CALM      30.09S
6HR MIN TEMP:  54; 6HR MAX TEMP:  73;

LAND O LAKES   CLEAR     52  51  97 CALM      30.11S FOG
6HR MIN TEMP:  52; 6HR MAX TEMP:  74;

PHILLIPS       CLEAR     62  57  84 SE3       30.08S
6HR MIN TEMP:  62; 6HR MAX TEMP:  75;

TOMAHAWK       CLEAR     51  50  95 CALM      30.09S FOG
6HR MIN TEMP:  53; 6HR MAX TEMP:  74;

MEDFORD        PTCLDY    60  53  79 CALM      30.08S
6HR MIN TEMP:  60; 6HR MAX TEMP:  73;

MERRILL        CLEAR     54  54 100 CALM      30.09S
6HR MIN TEMP:  54; 6HR MAX TEMP:  73;

$$

WIZ029-030-035-036-043>047-310700-
CENTRAL WISCONSIN

CITY           SKY/WX    TMP DP  RH WIND       PRES   REMARKS
WAUSAU         CLEAR     59  53  80 CALM      30.06F
6HR MIN TEMP:  59; 6HR MAX TEMP:  74;

MOSINEE        CLEAR     59  52  77 CALM      30.08F
MARSHFIELD     CLEAR     62  54  74 E3        30.06F
6HR MIN TEMP:  62; 6HR MAX TEMP:  76;

STEVENS POINT  CLEAR     55  54  97 CALM      30.07S
6HR MIN TEMP:  55; 6HR MAX TEMP:  73;

WAUPACA        CLEAR     59  58  97 CALM      30.06R
6HR MIN TEMP:  58; 6HR MAX TEMP:  77;

WAUTOMA        CLEAR     57  56  96 CALM      30.06S
6HR MIN TEMP:  57; 6HR MAX TEMP:  75;

WISC RAPIDS    PTCLDY    58  52  80 CALM      30.07S
6HR MIN TEMP:  57; 6HR MAX TEMP:  76;

CAMP DOUGLAS   FOG       55  55 100 CALM      30.04F VSB 3/4
6HR MIN TEMP:  56; 6HR MAX TEMP:  76;

$$

WIZ011>013-019>022-031-037>040-048>050-310700-
NORTHEAST WISCONSIN

CITY           SKY/WX    TMP DP  RH WIND       PRES   REMARKS
ANTIGO         CLEAR     52  51  97 CALM      30.09F
6HR MIN TEMP:  51; 6HR MAX TEMP:  70;

SHAWANO        CLEAR     58  55  91 CALM      30.06S
6HR MIN TEMP:  58; 6HR MAX TEMP:  76;

OCONTO         CLEAR    N/A N/A N/A CALM      30.04F
STURGEON BAY   CLEAR     66  59  78 N5        30.04F
6HR MIN TEMP:  65; 6HR MAX TEMP:  74;

GREEN BAY      CLEAR     57  57 100 CALM      30.04F
6HR MIN TEMP:  57; 6HR MAX TEMP:  73;

MANITOWOC      CLEAR     61  58  90 NW3       30.03F
6HR MIN TEMP:  61; 6HR MAX TEMP:  72;

APPLETON       CLEAR     61  52  72 N5        30.04R
CLINTONVILLE   CLEAR     55  54  94 CALM      30.06S
OSHKOSH        CLEAR     60  55  83 W3        30.04S
6HR MIN TEMP:  60; 6HR MAX TEMP:  75;

$$

WIZ032>034-041-042-053>061-310700-
SOUTHWEST WISCONSIN

CITY           SKY/WX    TMP DP  RH WIND       PRES   REMARKS
LA CROSSE      CLEAR     69  63  81 E5        30.03R
6HR MIN TEMP:  68; 6HR MAX TEMP:  80;

SPARTA         CLEAR     62  60  94 CALM      30.05S
6HR MIN TEMP:  61; 6HR MAX TEMP:  75;

VIROQUA        CLEAR     63  60  91 CALM      30.06R
6HR MIN TEMP:  63; 6HR MAX TEMP:  77;

BOSCOBEL       FOG       62  61  96 CALM      30.04S VSB 3/4
6HR MIN TEMP:  62; 6HR MAX TEMP:  80;

PRAIRIE DU CHI   N/A     65  62  92 CALM      30.03R
6HR MIN TEMP:  65; 6HR MAX TEMP:  77;

PLATTEVILLE    CLEAR     64  61  93 SE5       30.05R
6HR MIN TEMP:  64; 6HR MAX TEMP:  78;

$$

WIZ056-057-062-063-064-067-068-310700-
SOUTH CENTRAL WISCONSIN

CITY           SKY/WX    TMP DP  RH WIND       PRES   REMARKS
REEDSBURG      CLEAR     61  60  98 CALM      30.04S
6HR MIN TEMP:  60; 6HR MAX TEMP:  76;

BARABOO/DELLS  CLEAR     60  56  85 E3        30.04F
6HR MIN TEMP:  59; 6HR MAX TEMP:  75;

LONE ROCK      CLEAR     61  59  93 CALM      30.04S
6HR MIN TEMP:  61; 6HR MAX TEMP:  77;

MINERAL POINT  CLEAR     64  59  82 E6        30.05S
MADISON        CLEAR     59  57  93 CALM      30.03F
6HR MIN TEMP:  59; 6HR MAX TEMP:  76;

MIDDLETON      CLEAR     58  58  97 W3        30.05S
6HR MIN TEMP:  58; 6HR MAX TEMP:  77;

WATERTOWN      CLEAR     58  58 100 CALM      30.03S
6HR MIN TEMP:  58; 6HR MAX TEMP:  74;

MONROE         CLEAR     63  61  94 E5        30.04S
JANESVILLE     CLEAR     61  61 100 CALM      30.03S
$$

WIZ051-052-058>065-066-070>072-310700-
SOUTHEAST WISCONSIN

CITY           SKY/WX    TMP DP  RH WIND       PRES   REMARKS
MILWAUKEE      PTCLDY    68  65  90 N6        30.02S
6HR MIN TEMP:  68; 6HR MAX TEMP:  72;

WAUKESHA       CLEAR     59  55  88 CALM      30.04S
MILWAUKEE/TIMM CLEAR     63  57  82 N3        30.03S
RACINE         MOCLDY    66  64  93 N5        30.03S
6HR MIN TEMP:  65; 6HR MAX TEMP:  71;

BURLINGTON     CLEAR     58  57  97 NW5       30.02S
6HR MIN TEMP:  58; 6HR MAX TEMP:  73;

KENOSHA        PTCLDY    64  62  93 N5        30.02S
6HR MIN TEMP:  64; 6HR MAX TEMP:  71;

FOND DU LAC    CLEAR     58  56  93 CALM      30.04S
6HR MIN TEMP:  58; 6HR MAX TEMP:  75;

SHEBOYGAN      CLEAR     58  55  90 CALM      30.03S
6HR MIN TEMP:  58; 6HR MAX TEMP:  70;

WEST BEND      CLEAR     59  55  88 CALM      30.04S
JUNEAU         CLEAR     59  56  90 N3        30.05S
6HR MIN TEMP:  58; 6HR MAX TEMP:  74;

$$

LSZ147-162-310700-
LAKE SUPERIOR

STATION/POSITION TIME  TEMP    WIND        PRES    WAVE
                       AIR SEA DIR/SP/G            HT/PER
                 (UTC) (F)     (DEG/KT/KT) (MB)    (FT/S)
W MID LAKE BUOY  0550   65 62  130/  8/ 10 1016.4F   0
DEVILS ISLAND    0600   66      50/  6/  7 1016.9R
PORT WING        0500   61      CALM  /  1 1016.9
SAXON HARBOR     0500   62     170/  2/  4 1016.6S
$$

LMZ867-665-643>646-310700-
LAKE MICHIGAN

STATION/POSITION TIME  TEMP    WIND        PRES    WAVE
                       AIR SEA DIR/SP/G            HT/PER
                 (UTC) (F)     (DEG/KT/KT) (MBC1F1C2F2C3F3C4F4C5F5C6F6C7F7C8M1C9M2Ca!



USA.gov is the U.S. government's official web portal to all federal, state and local government web resources and services.